Location: Marcé
(47.5801°N, 0.3280°W)
Time: 15:12:39
(UTC+01:00)

Tiros 1 despin weight - Pass Details

Date: 17 December 2021
Orbit: 592 x 641 km, 48.2° (Epoch: 19 January)

Event Time Altitude Azimuth Distance (km) Brightness Sun altitude
Rises 13:04:54 0° 282° (WNW) 2,862 ? 19.0°
Reaches altitude 10° 13:07:13 10° 281° (W) 1,949 ? 19.0°
Maximum altitude 13:11:40 77° 196° (SSW) 616 ? 19.0°
Drops below altitude 10° 13:16:05 10° 111° (ESE) 1,923 ? 18.9°
Sets 13:18:21 0° 110° (ESE) 2,820 ? 18.9°
